[[{"header":{"parameterUnit":"m.s-1","parameterCategory":1,"la1":30.2991,"la2":30.254,"lo1":-89.0895,"lo2":-89.0444,"dy":0.0017,"dx":0.0017,"nx":28,"ny":28,"refTime":"2025-01-31T03:00:00:Z","depth":0,"parameterNumber":2,"parameterNumberName":"U-component_of_WINDS"},"data":[0,0,0,0,0,0,0,0,0,0,0,0,0,0,0,0,0,0,0,0,0,0,0,0,0,0,0,0,0,0,0,0,0,0,0,0,0,0,0,0,0,0,0,0,0,0,0,0,0,0,0,0,0,0,0,0,0,0,0.9309,0.931,0,0.9414,0.9415,0.9416,0.9435,0.9435,0.9434,0.9433,0.9544,0.9547,0.9551,0,0,0,0,0,0,0,0,0,0,0,0,0,0.9127,0.913,0.9309,0.931,0.9312,0.9414,0.9415,0.9417,0.9436,0.9435,0.9433,0.9432,0.9542,0.9547,0.9551,0,0,0,0,0,0,0,0,0,0,0,0,0,0.9216,0.9131,0.9309,0.9333,0.9337,0.9413,0.9415,0.9417,0.9436,0.9435,0.9433,0.9432,0.9541,0.9546,0.9552,0.9613,0,0,0.9569,0.9572,0,0,0,0,0,0,0,0,0.9211,0.9223,0.9328,0.9332,0.9336,0.941,0.9392,0.9483,0.9436,0.9398,0.9433,0.9431,0.9501,0.9509,0.9532,0.9618,0.9623,0.957,0.9573,0.9575,0.9577,0,0,0,0,0,0,0,0.9205,0.9219,0.9351,0.933,0.9334,0.934,0.9351,0.9409,0.9456,0.9401,0.9403,0.9415,0.9502,0.9527,0.9535,0.9624,0.957,0.9575,0.9578,0.958,0.9763,0.9765,0,0,0,0,0,0,0.9194,0.9213,0.9347,0.9354,0.9269,0.9344,0.9357,0.9388,0.9455,0.9464,0.9416,0.9416,0.9518,0.9528,0.9539,0.9613,0.9575,0.9581,0.9584,0.9762,0.9764,0.9765,0,0,0,0,0,0,0.919,0.9206,0.9343,0.9284,0.9302,0.9348,0.9383,0.939,0.9415,0.9466,0.9475,0.9432,0.9517,0.9531,0.9593,0.9617,0.9583,0.9588,0.976,0.9762,0.9765,0.9763,0,0,0,0,0,0,0.9185,0.9204,0.9228,0.9284,0.9305,0.9396,0.9385,0.9393,0.9424,0.9424,0.9483,0.9492,0.9517,0.9585,0.9599,0.9624,0.9593,0.9758,0.9761,0.9764,0.9761,0.9764,0.9768,0,0,0,0,0,0.9178,0.9224,0.9229,0.9245,0.9335,0.9397,0.9409,0.9436,0.9426,0.945,0.9482,0.949,0.9612,0.9591,0.9607,0.9634,0.9757,0.976,0.9764,0.9759,0.9764,0.9768,0,0,0,0,0,0,0.9171,0.9232,0.9238,0.9303,0.9344,0.94,0.9431,0.944,0.9486,0.9484,0.9517,0.953,0.9591,0.9619,0.9595,0.9696,0.9684,0.9691,0.9675,0.968,0.9683,0.9675,0.9597,0,0,0,0,0,0.9176,0.9221,0.9272,0.9325,0.9345,0.9384,0.9413,0.9429,0.9474,0.9492,0.9529,0.9573,0.9621,0.9652,0.9699,0.9765,0.9777,0.9791,0.9795,0.9797,0.9803,0.9838,0.9844,0.9776,0.9776,0.9776,0,0,0.9189,0.9228,0.9254,0.9324,0.9358,0.9404,0.9399,0.9448,0.9482,0.95,0.956,0.9589,0.964,0.9704,0.9734,0.9729,0.9824,0.9802,0.9803,0.9807,0.9842,0.9848,0.9854,0.9779,0.9778,0.9778,0,0,0.9235,0.9269,0.9316,0.9349,0.94,0.9426,0.9437,0.9491,0.951,0.9571,0.9584,0.9626,0.9709,0.9743,0.9772,0.9829,0.9838,0.9844,0.9862,0.9896,0.9901,0.9906,0.9925,0.9932,0.9849,0.9849,0.9849,0,0.9244,0.9313,0.9339,0.9387,0.9417,0.9433,0.948,0.9512,0.9576,0.9597,0.959,0.9693,0.9728,0.98,0.9813,0.9836,0.985,0.9837,0.9898,0.9903,0.9908,0.9927,0.9934,0.9849,0.9849,0.9849,0.9849,0,0.9321,0.9369,0.94,0.946,0.9493,0.9541,0.9574,0.9606,0.9619,0.9645,0.9707,0.9749,0.9805,0.9823,0.9838,0.9896,0.9891,0.9891,0.988,0.9914,0.9932,0.994,0.985,0.985,0.9849,0.9849,0,0,0.9367,0.9438,0.9449,0.9476,0.9532,0.9569,0.9617,0.967,0.9695,0.9739,0.9779,0.9847,0.9846,0.9879,0.9898,0.9927,0.9968,0.9923,0.9925,0.9929,1.0033,1.0033,1.0041,0.9974,0.9975,0.9976,1.0029,0,0.9418,0.9503,0.9527,0.9599,0.9642,0.9657,0.9698,0.9738,0.9763,0.9804,0.9832,0.9879,0.9875,0.9895,0.9925,0.9956,0.9989,0.9953,1.0012,1.0013,0.9998,1.005,1.005,1.0098,1.0036,1.0037,1.0038,0,0.9491,0.9533,0.9608,0.9657,0.9676,0.9713,0.9762,0.9801,0.9845,0.9861,0.9896,0.9912,0.9962,0.9947,1.0017,0.9992,1.0017,1.0036,1.0038,1.0045,1.0028,1.0057,1.0114,1.012,1.005,1.0049,1.0048,0,0.9514,0.9591,0.9645,0.9667,0.9726,0.9751,0.9777,0.982,0.9849,0.9893,0.9912,0.9961,0.9988,1.0025,1.0053,1.0041,1.012,1.0108,1.0135,1.0134,1.0151,1.0149,1.0211,1.0168,1.0168,1.0168,1.0168,0,0.9569,0.9614,0.9656,0.9689,0.974,0.9767,0.9817,0.9844,0.9881,0.992,0.9937,0.9973,1.0009,1.0049,1.0072,1.0125,1.0138,1.0152,1.0157,1.015,1.0148,1.0167,1.0164,1.017,1.0169,1.0169,1.0169,0,0.9604,0.9634,0.9694,0.9744,0.9758,0.9793,0.9836,0.9869,0.9894,0.9943,0.9956,0.9996,1.0044,1.0076,1.0139,1.0154,1.0212,1.0217,1.0196,1.0198,1.0223,1.0219,1.0298,1.031,1.026,1.026,1.026,0,0.9637,0.9672,0.9725,0.9751,0.9777,0.982,0.9849,0.9877,0.9907,0.9959,0.9986,1.0035,1.0076,1.0153,1.0188,1.0236,1.0242,1.0266,1.0249,1.024,1.0241,1.0238,1.0241,1.0269,1.0269,1.027,1.027,0,0.9692,0.9704,0.9745,0.9791,0.9826,0.9864,0.9902,0.9923,0.9957,0.999,1.0039,1.0071,1.0134,1.0183,1.0233,1.026,1.0271,1.0275,1.0283,1.0276,1.0262,1.0269,1.0203,1.0273,1.0273,1.0272,1.0272,1.0272,0.9726,0.9757,0.9798,0.9843,0.9874,0.9909,0.9942,0.997,1.0011,1.0064,1.0078,1.0129,1.0171,1.024,1.0268,1.0308,1.0305,1.0318,1.0321,1.0324,1.0323,1.0256,1.0318,1.0318,1.0318,1.0318,1.0318,0,0.978,0.9807,0.9848,0.99,0.9935,0.9941,0.9983,1.0012,1.0056,1.0094,1.0133,1.0189,1.0236,1.0274,1.0322,1.0347,1.0353,1.0359,1.0357,1.0363,1.0324,1.0311,1.0353,1.0353,1.0353,1.0353,1.0353,1.0353,0.9813,0.9864,0.9882,0.9949,0.9976,1.0025,1.0048,1.008,1.011,1.0171,1.021,1.0233,1.0271,1.0322,1.0365,1.0375,1.0392,1.0396,1.0407,1.037,1.0366,1.0362,1.035,1.04,1.04,1.0443,1.0443,1.0443]},{"header":{"parameterUnit":"m.s-1","parameterCategory":1,"la1":30.2991,"la2":30.254,"lo1":-89.0895,"lo2":-89.0444,"dy":0.0017,"dx":0.0017,"nx":28,"ny":28,"refTime":"2025-01-31T03:00:00:Z","depth":0,"parameterNumber":3,"parameterNumberName":"V-component_of_WINDS"},"data":[0,0,0,0,0,0,0,0,0,0,0,0,0,0,0,0,0,0,0,0,0,0,0,0,0,0,0,0,0,0,0,0,0,0,0,0,0,0,0,0,0,0,0,0,0,0,0,0,0,0,0,0,0,0,0,0,0,0,1.8379,1.8378,0,1.8296,1.8295,1.8294,1.8285,1.8286,1.8287,1.8288,1.8195,1.8192,1.8189,0,0,0,0,0,0,0,0,0,0,0,0,0,1.8523,1.8521,1.8379,1.8378,1.8377,1.8296,1.8294,1.8293,1.8285,1.8286,1.8287,1.8288,1.8196,1.8192,1.8188,0,0,0,0,0,0,0,0,0,0,0,0,0,1.8452,1.852,1.8379,1.8363,1.8361,1.8296,1.8294,1.8293,1.8285,1.8286,1.8287,1.8288,1.8197,1.8193,1.8188,1.8131,0,0,1.8173,1.8171,0,0,0,0,0,0,0,0,1.8456,1.8447,1.8366,1.8364,1.8361,1.8302,1.8311,1.8238,1.8284,1.8313,1.8288,1.8289,1.8229,1.8222,1.8203,1.8127,1.8123,1.8172,1.8169,1.8167,1.8166,0,0,0,0,0,0,0,1.8461,1.845,1.8346,1.8365,1.8362,1.8357,1.8349,1.8298,1.8264,1.8311,1.831,1.8301,1.8228,1.8208,1.8201,1.8121,1.8172,1.8168,1.8165,1.8163,1.7993,1.7991,0,0,0,0,0,0,1.847,1.8454,1.8348,1.8343,1.8413,1.8354,1.8344,1.832,1.8265,1.8258,1.83,1.8301,1.8215,1.8206,1.8197,1.8126,1.8167,1.8163,1.816,1.7994,1.7992,1.7991,0,0,0,0,0,0,1.8473,1.8461,1.8352,1.8399,1.8384,1.835,1.8322,1.8317,1.8297,1.8257,1.825,1.8286,1.8216,1.8204,1.8148,1.8123,1.816,1.8156,1.7996,1.7994,1.7991,1.7984,0,0,0,0,0,0,1.8477,1.8462,1.8442,1.8398,1.8382,1.8306,1.8321,1.8315,1.829,1.829,1.8242,1.8235,1.8216,1.8155,1.8143,1.8117,1.8152,1.7998,1.7995,1.7992,1.7987,1.7982,1.7978,0,0,0,0,0,1.8483,1.8442,1.8441,1.8428,1.8356,1.8304,1.8295,1.8276,1.8288,1.8266,1.824,1.8236,1.8128,1.8149,1.8136,1.8108,1.7999,1.7996,1.7992,1.7988,1.7983,1.7978,0,0,0,0,0,0,1.848,1.8436,1.8434,1.8379,1.8346,1.8303,1.8275,1.8271,1.8232,1.8234,1.821,1.8199,1.8143,1.812,1.8144,1.8049,1.8065,1.8058,1.8066,1.8061,1.8057,1.8063,1.8148,0,0,0,0,0,1.8474,1.8438,1.84,1.8354,1.8338,1.8309,1.8286,1.8275,1.8238,1.8224,1.8194,1.8157,1.8114,1.8086,1.8045,1.7984,1.7972,1.7957,1.7953,1.795,1.7944,1.7908,1.7901,1.7979,1.7979,1.7979,0,0,1.8459,1.843,1.8408,1.8353,1.8326,1.8287,1.8297,1.8255,1.8225,1.8216,1.8162,1.8138,1.8095,1.8036,1.8008,1.8014,1.792,1.7946,1.7943,1.7939,1.7904,1.7896,1.789,1.7977,1.7977,1.7977,0,0,1.8412,1.8388,1.8347,1.832,1.828,1.8261,1.8252,1.821,1.8194,1.814,1.8132,1.8094,1.8022,1.7992,1.7966,1.7908,1.7903,1.7895,1.7872,1.7837,1.7831,1.7826,1.7803,1.7796,1.789,1.7889,1.7889,0,1.8398,1.8341,1.8325,1.8284,1.8258,1.8252,1.8208,1.8182,1.813,1.8111,1.812,1.8029,1.8,1.7932,1.7918,1.7899,1.7885,1.79,1.7834,1.7828,1.7823,1.7801,1.7793,1.7889,1.7889,1.7889,1.7889,0,1.8325,1.8285,1.8256,1.8208,1.818,1.8138,1.8113,1.8086,1.8077,1.8057,1.8,1.7965,1.7916,1.7899,1.789,1.783,1.7835,1.7839,1.7854,1.7815,1.7794,1.7785,1.7888,1.7888,1.7888,1.7888,0,0,1.8273,1.8218,1.8207,1.8185,1.8141,1.8108,1.8065,1.8019,1.7996,1.796,1.7921,1.786,1.7864,1.7835,1.7822,1.7792,1.7746,1.7799,1.7798,1.7789,1.7676,1.7672,1.7663,1.7743,1.7741,1.774,1.7679,0,1.8219,1.8145,1.8129,1.8063,1.8025,1.8018,1.798,1.7947,1.7927,1.789,1.7866,1.7823,1.7832,1.7815,1.7785,1.7758,1.7722,1.7762,1.7704,1.7702,1.7714,1.7652,1.7648,1.7592,1.7671,1.7669,1.7668,0,1.8147,1.8112,1.8043,1.8003,1.7986,1.7953,1.7909,1.7875,1.7836,1.7824,1.7793,1.7782,1.7734,1.7753,1.7685,1.7713,1.7688,1.7671,1.7668,1.766,1.7682,1.7641,1.7574,1.7565,1.7656,1.7657,1.7658,0,1.8114,1.8049,1.7999,1.798,1.7933,1.7909,1.7888,1.7852,1.7825,1.7786,1.7768,1.7724,1.7699,1.7664,1.7641,1.7657,1.7574,1.7591,1.756,1.756,1.7541,1.7542,1.7468,1.7528,1.7528,1.7528,1.7529,0,1.8055,1.8012,1.7984,1.7953,1.7904,1.7886,1.7838,1.7816,1.7784,1.7747,1.7737,1.7702,1.7675,1.7636,1.7617,1.7563,1.7552,1.7538,1.7533,1.7538,1.754,1.752,1.7523,1.7526,1.7527,1.7527,1.7528,0,1.8009,1.7989,1.7933,1.7894,1.7883,1.7849,1.7814,1.7782,1.7762,1.7715,1.7703,1.7671,1.7624,1.7598,1.7538,1.7526,1.7465,1.7463,1.7478,1.7476,1.7445,1.7448,1.7354,1.734,1.7412,1.7411,1.7411,0,1.7972,1.7939,1.7897,1.7873,1.7852,1.7813,1.7786,1.7767,1.7739,1.7693,1.7666,1.7619,1.7581,1.7505,1.7475,1.7429,1.7424,1.7395,1.7417,1.7423,1.7422,1.7423,1.7419,1.739,1.7389,1.7389,1.7389,0,1.7908,1.7899,1.7863,1.7822,1.7791,1.7758,1.7725,1.7704,1.7679,1.7648,1.7601,1.7571,1.7511,1.7464,1.7416,1.7391,1.7384,1.7382,1.7372,1.7375,1.7385,1.7378,1.7466,1.7384,1.7384,1.7385,1.7385,1.7385,1.7864,1.7834,1.78,1.7759,1.7732,1.7702,1.767,1.7647,1.7609,1.756,1.755,1.75,1.7461,1.7396,1.737,1.7329,1.7335,1.7321,1.7317,1.7313,1.7311,1.7394,1.732,1.732,1.7321,1.7321,1.7321,0,1.7797,1.7775,1.7738,1.7693,1.766,1.7661,1.7624,1.7595,1.7552,1.7518,1.7481,1.7426,1.738,1.7347,1.73,1.7273,1.7268,1.7261,1.7261,1.7255,1.731,1.7322,1.7265,1.7265,1.7265,1.7265,1.7265,1.7265,1.7759,1.7709,1.7696,1.7632,1.7609,1.7562,1.7541,1.7511,1.7484,1.7425,1.7387,1.7367,1.7332,1.7282,1.7239,1.723,1.7212,1.7205,1.7195,1.7246,1.7252,1.7257,1.7269,1.7201,1.7201,1.7144,1.7144,1.7143]}]]